Regional Weather Roundup
Issued by NWS

Home | Current Version | Previous Version | Text Only | Print | Product List | Glossary Off
Versions: 1 2 3 4 5 6 7 8 9 10 11 12 13 14 15 16 17 18 19 20 21 22 23 24 25 26 27 28 29 30 31 32 33 34 35 36 37 38 39 40 41 42 43 44 45 46 47 48 49 50

000
ASUS43 KIND 050109
RWRIN

WEATHER ROUNDUP FOR INDIANA
NATIONAL WEATHER SERVICE INDIANAPOLIS IN
800 PM EST WED MAR 04 2015

NOTE: "FAIR" INDICATES FEW OR NO CLOUDS BELOW 12,000 FEET WITH NO
SIGNIFICANT WEATHER AND/OR OBSTRUCTIONS TO VISIBILITY.

* - STATION DOES NOT REPORT WEATHER SUCH AS PRECIPITATION OR FOG.

+ - STATION NOT QUALITY CONTROLLED BY THE NATIONAL WEATHER SERVICE.
    USE DATA WITH CAUTION...ESPECIALLY DEWPOINT AND RELATIVE
    HUMIDITY OBSERVATIONS.

INZ001>003-010>013-019-020-050200-
NORTHWEST INDIANA

CITY           SKY/WX    TMP DP  RH WIND       PRES   REMARKS
GARY /AIRPORT/ MOCLDY    21  -4  33 NW14      30.24R WCI   8
KNOX *+          N/A     19  -6  32 NW8       30.23R WCI   9
LA PORTE +     CLOUDY    21   4  47 NW7       30.22S WCI  12
MICHIGAN CITY+ CLOUDY    21   0  39 NW5       30.23S WCI  15
MONTICELLO +   CLOUDY    18  11  74 NW12      30.22S WCI   6
RENSSELAER +   CLOUDY    19  14  79 W12       30.22F WCI   7
VALPARAISO     CLOUDY    19   2  47 N3        30.21R

$$

LMZ046-743>745-050200-
SOUTHERN LAKE MICHIGAN

STATION/POSITION TIME  TEMP WIND        PRES
                       AIR  DIR/SP/G
                 (UTC) (F)  (DEG/KT/KT) (MB)
MICHIGAN CITY    0100   19  290/  9/ 11   N/A

$$

INZ004-005-014>016-021>024-050200-
NORTH CENTRAL INDIANA

CITY           SKY/WX    TMP DP  RH WIND       PRES   REMARKS
GOSHEN         CLOUDY    18   7  62 NW14      30.20R WCI   4
LOGANSPORT +   CLOUDY    19  10  68 N14       30.21F WCI   6
PERU/GRISSOM   CLOUDY    20   7  57 N15       30.18R WCI   6
ROCHESTER +    CLOUDY    23   9  54 NW13      30.21R WCI  11
SOUTH BEND     CLOUDY    20   5  52 NW8       30.23R WCI  10
WARSAW +       CLOUDY    19   9  63 NW9       30.21R WCI   9

$$

INZ006>009-017-018-025>027-050200-
NORTHEAST INDIANA

CITY           SKY/WX    TMP DP  RH WIND       PRES   REMARKS
ANGOLA *+      CLEAR     18   7  62 NW10      30.15R WCI   6
AUBURN +       CLOUDY    21   9  58 NW10G21   30.18R WCI  10
FORT WAYNE     CLOUDY    20   9  62 NW14      30.18R WCI   7
HUNTINGTON +   CLOUDY    19   4  52 NW9G16    30.18R WCI   9

$$

INZ028-029-035-036-043>045-051>053-050200-
WEST CENTRAL INDIANA

CITY           SKY/WX    TMP DP  RH WIND       PRES   REMARKS
CRAWFORDSVL +  CLOUDY    16   5  61 NW12      30.21S WCI   3
GREENCASTLE +  CLOUDY    19   7  58 NW7       30.21R WCI  10
LAFAYETTE      CLOUDY    18   8  65 NW12      30.23S WCI   5
TERRE HAUTE    CLOUDY    19   6  57 N15       30.23R WCI   5

$$

INZ030>032-037>040-046>048-054>057-064-065-050200-
CENTRAL INDIANA

CITY           SKY/WX    TMP DP  RH WIND       PRES   REMARKS
CP ATTERBURY + CLOUDY    23  16  74 NW12      30.20R WCI  12
COLUMBUS       FLURRIES  21  16  79 NW17      30.20R WCI   7
FISHERS *+     CLOUDY    19  16  86 NW8       30.19  WCI   9
FRANKFORT +    CLOUDY    19  13  75 W9        30.22R WCI   8
GREENWOOD *+   CLOUDY    19  12  73 NW9       30.20R WCI   9
INDIANAPOLIS   CLOUDY    20  12  71 NW15      30.19R WCI   6
-EAGLE CREEK   CLOUDY    19  12  74 NW10      30.19R WCI   7
KOKOMO *+        N/A    N/A N/A N/A MISG        N/A
MARION +       CLOUDY    21  10  63 N13       30.18S WCI   8
MT COMFORT *+  CLOUDY    21   9  58 NW10      30.19R WCI  10
SHELBYVILLE    CLOUDY    24  15  68 NW15      30.19R WCI  11
ZIONSVILLE +   CLOUDY    20  12  69 NW13      30.19R WCI   8

$$

INZ033-034-041-042-049-050-058-059-050200-
EAST CENTRAL INDIANA

CITY           SKY/WX    TMP DP  RH WIND       PRES   REMARKS
MUNCIE         CLOUDY    23  13  65 N17       30.15R WCI   9

$$

INZ060-061-067>069-081>083-085>088-050200-
SOUTHWEST INDIANA

CITY           SKY/WX    TMP DP  RH WIND       PRES   REMARKS
EVANSVILLE     LGT SNOW  20  16  84 N15G22    30.27R VSB 1   WCI   6
HUNTINGBURG *+ CLOUDY    19  16  86 N13       30.23R VSB 1   WCI   7
WASHINGTON +   CLOUDY    20   9  62 NW12      30.24R WCI   8

$$

INZ062-063-066-070>080-084-089>092-050200-
SOUTH CENTRAL AND SOUTHEAST INDIANA

CITY           SKY/WX    TMP DP  RH WIND       PRES   REMARKS
BEDFORD +      LGT SNOW  21  18  86 MISG      30.20R
BLOOMINGTON    CLOUDY    21   8  57 N12       30.18R WCI   9
NORTH VERNON + LGT SNOW  25  25 100 NW8       30.18R WCI  16
SEYMOUR +      LGT SNOW  25  23  93 NW9       30.20R WCI  15

$$




USA.gov is the U.S. government's official web portal to all federal, state and local government web resources and services.